This demonstration page uses our WeatherBlox Daily Observations layout. Learn more.

Left ArrowRight Arrow

Hourly Observations for June 13, 2017

Temp ( °F °C ) Dew Point ( °F °C ) Humidity (%) Winds ( mph kmh ) Pressure ( in mb ) Visibility ( mi km ) Precip ( " mm )
12:53 am 00:53 Clear 72 22.2 71 21.7 97 97 Calm 30.09 1019 10 16 0.00 0.00
1:53 am 01:53 Clear 71 21.7 71 21.7 100 100 Calm 30.09 1019 10 16 0.00 0.00
2:53 am 02:53 Clear 72 22.2 71 21.7 97 97 Calm 30.09 1019 10 16 0.00 0.00
3:53 am 03:53 Clear 69 20.6 69 20.6 100 100 Calm 30.09 1019 10 16 0.00 0.00
4:53 am 04:53 Clear 69 20.6 69 20.6 100 100 Calm 30.09 1019 9 14 0.00 0.00
5:53 am 05:53 Clear 69 20.6 69 20.6 100 100 Calm 30.10 1019 9 14 0.00 0.00
6:53 am 06:53 Sunny 69 20.6 69 20.6 100 100 Calm 30.11 1020 10 16 0.00 0.00
7:53 am 07:53 Sunny 70 21.1 70 21.1 100 100 Calm 30.12 1020 10 16 0.00 0.00
8:53 am 08:53 Sunny 75 23.9 71 21.7 88 88 Calm 30.14 1021 10 16 0.00 0.00
9:53 am 09:53 Partly Cloudy 79 26.1 71 21.7 77 77 Calm 30.13 1020 10 16 0.00 0.00
10:53 am 10:53 Sunny 80 26.7 69 20.6 69 69 SW 6 9 30.13 1020 10 16 0.00 0.00
11:53 am 11:53 Mostly Sunny 82 27.8 69 20.6 65 65 SW 6 9 30.12 1020 10 16 0.00 0.00
12:53 pm 12:53 Sunny 83 28.3 69 20.6 63 63 VRB 3 6 30.09 1019 10 16 0.00 0.00
1:53 pm 13:53 Partly Cloudy 84 28.9 68 20 59 59 SW 3 6 30.07 1018 10 16 0.00 0.00
2:53 pm 14:53 Cloudy 85 29.4 67 19.4 55 55 SSE 5 7 30.04 1017 10 16 0.00 0.00
3:53 pm 15:53 Mostly Sunny 85 29.4 68 20 57 57 W 5 7 30.02 1017 10 16 0.00 0.00
4:53 pm 16:53 Sunny 86 30 66 18.9 51 51 WSW 6 9 30.00 1016 10 16 0.00 0.00
5:53 pm 17:53 Sunny 87 30.6 66 18.9 50 50 WSW 6 9 29.99 1016 10 16 0.00 0.00
6:53 pm 18:53 Sunny 86 30 65 18.3 49 49 S 3 6 29.99 1016 10 16 0.00 0.00
7:53 pm 19:53 Sunny 86 30 67 19.4 53 53 SW 5 7 30.00 1016 10 16 0.00 0.00
8:53 pm 20:53 Mostly Cloudy 84 28.9 68 20 59 59 SW 5 7 30.01 1016 10 16 0.00 0.00
9:53 pm 21:53 Mostly Cloudy 82 27.8 69 20.6 65 65 S 3 6 30.02 1017 10 16 0.00 0.00
10:02 pm 22:02 Partly Cloudy with Nearby Thunderstorms 82 27.8 68 20 63 63 S 7 11 30.03 1017 10 16 0.00 0.00
10:22 pm 22:22 Mostly Cloudy 81 27.2 68 20 65 65 S 7 11 30.03 1017 10 16 0.00 0.00
10:32 pm 22:32 Mostly Cloudy with Nearby Thunderstorms 80 26.7 69 20.6 69 69 SSW 6 9 30.03 1017 10 16 0.00 0.00
10:49 pm 22:49 Mostly Clear 81 27 70 21 70 70 SSW 8 13 30.03 1017 10 16 0.00 0.00
10:53 pm 22:53 Mostly Clear 79 26.1 69 20.6 72 72 SSW 7 11 30.04 1017 10 16 0.00 0.00
11:53 pm 23:53 Clear 77 25 70 21.1 79 79 S 6 9 30.05 1018 10 16 0.00 0.00

Powered by AerisWeather